Regional Weather Roundup
Issued by NWS Wakefield, VA

Home | Current Version | Previous Version | Text Only | Print | Product List | Glossary On
Versions: 1 2 3 4 5 6 7 8 9 10 11 12 13 14 15 16 17 18 19 20 21 22 23 24 25 26 27 28 29 30 31 32 33 34 35 36 37 38 39 40 41 42 43 44 45 46 47 48 49 50
033
ASUS41 KAKQ 231115
RWRAKQ

REGIONAL WEATHER ROUNDUP
NATIONAL WEATHER SERVICE WAKEFIELD VA
600 AM EST THU NOV 23 2017

Note: "fair" indicates few or no clouds below 12,000 feet with no
significant weather and/or obstructions to visibility. * = Denotes
station may not report precipitation (e.g., rain,snow,etc.),
thunder or fog.

VAZ042-051-052>054-056-231200-
NORTHERN VIRGINIA

CITY           SKY/WX    TMP DP  RH WIND       PRES   REMARKS
WASH NATIONAL  PTCLDY    33  22  63 N8        30.19S
DULLES         CLOUDY    27  21  78 CALM      30.18R
FORT BELVOIR   CLEAR     25  22  88 CALM      30.19R
QUANTICO       CLOUDY    31  23  72 N3        30.20R
FREDERICKSBRG* CLOUDY    28  26  94 NW3       30.19R
STAFFORD*      CLOUDY    22  22 100 CALM      30.22R
WARRENTON      NOT AVBL
CULPEPER*      CLOUDY    22  19  88 CALM      30.19R
MANASSAS*      CLOUDY    21  18  88 CALM      30.19S
LEESBURG*      CLOUDY    28  27  93 NW5       30.19R
WINCHESTER     CLOUDY    27  19  74 CALM      30.17R
FRONT ROYAL*   CLOUDY    23  21  93 MISG      30.16S
LURAY*         CLOUDY    23  23 100 CALM      30.16S
$$

VAZ048-049-060>072-079>083-231200-
CENTRAL AND SOUTH CENTRAL VIRGINIA

CITY           SKY/WX    TMP DP  RH WIND       PRES   REMARKS
RICHMOND       PTCLDY    31  25  78 CALM      30.17S
CHESTERFIELD*  NOT AVBL
PETERSBURG*    PTCLDY   N/A N/A N/A CALM      30.18S
HANOVER        CLOUDY    29  24  82 CALM      30.19R
TAPPAHANNOCK*    N/A    N/A N/A N/A MISG        N/A
QUINTON*       FAIR      31  25  77 CALM      30.18R
CHARLOTTSVILLE CLOUDY    28  23  81 CALM      30.16R
GORDONSVILLE*  MOSUNNY   22  21  96 MISG      30.17S
ORANGE*        CLOUDY    21  21 100 CALM      30.18R
LOUISA*        PTCLDY    22  20  93 CALM      30.21S
BUMPASS*       FAIR      28  24  86 CALM      30.17S
FARMVILLE*     PTCLDY    27  27 100 CALM      30.17S
CREWE*         FAIR      28  28 100 CALM      30.17R
FORT PICKETT*  FAIR      29  25  85 CALM      30.17R
CHASE CITY*    FAIR      32  24  71 CALM      30.17R
CLARKSVILLE*   FAIR      34  27  75 E3        30.17R
SOUTH HILL*    CLOUDY    28  27  96 CALM      30.22R
LAWRENCEVILLE* FAIR      30  27  86 CALM      30.16S
EMPORIA*       CLOUDY    30  27  86 CALM      30.18S
$$

VAZ088>098-231200-
SOUTHEAST VIRGINIA

CITY           SKY/WX    TMP DP  RH WIND       PRES   REMARKS
NORFOLK        CLOUDY    42  33  70 N10       30.14R
VIRGINIA BEACH CLOUDY    40  30  67 N7        30.13R
NORFOLK NAVAL  CLOUDY    39  31  72 N12       30.16R
WEST POINT*    CLOUDY    31  26  82 CALM      30.19S
SALUDA*        FAIR      36  28  72 N9        30.17R
NEWPORT NEWS   PTCLDY    34  27  75 N6        30.16S
LANGLEY AFB    PTCLDY    36  28  73 NW9       30.15R
FORT EUSTIS    PTCLDY    37  28  69 N6        30.13S
WILLIAMSBURG*  PTCLDY    34  28  80 CALM      30.17S
HR EXEC AP*    NOT AVBL
FRANKLIN*      CLOUDY    31  26  83 CALM      30.17R
US460-WAKEFLD  PTCLDY    33  26  75 N3        30.17R
$$

VAZ020-022-025-037-045-231200-
WEST CENTRAL AND SOUTHWEST VIRGINIA

CITY           SKY/WX    TMP DP  RH WIND       PRES   REMARKS
STAUNTON*      CLOUDY    18  15  91 CALM      30.16S
WAYNESBORO*    CLOUDY    21  19  92 CALM      30.13R
HOT SPRINGS VA CLOUDY    24  19  83 W14       30.02F WCI  12
LYNCHBURG      PTCLDY    24  21  88 CALM      30.15R
DANVILLE       PTCLDY    28  27  96 CALM      30.17R
SOUTH BOSTON*  FAIR      28  27  96 CALM      30.17R
MARTINSVILLE   CLOUDY    25  23  89 CALM      30.18R
ROANOKE        CLOUDY    29  23  78 N3        30.16S
BLACKSBURG     CLOUDY    22  19  91 CALM      30.14R
DUBLIN*        CLOUDY    23  21  93 CALM      30.12S
MARION*        CLOUDY    20  17  86 CALM      30.11S
HILLSVILLE*    CLOUDY    25  23  91 CALM      30.07S
RICHLANDS*     FAIR      25  21  87 NE3       30.09R
WISE*          CLOUDY    28  25  86 N5        30.09S
ABINGDON*      CLOUDY    25  22  87 E5        30.09F
$$

MDZ021>025-VAZ099-100-231200-
SOUTHERN MARYLAND AND THE DELMARVA PENINSULA

CITY           SKY/WX    TMP DP  RH WIND       PRES   REMARKS
PATUXENT RIVER CLOUDY    35  24  64 NW14      30.16S
BAY BRIDGE APT PTCLDY    36  27  69 NW10      30.17S
LEONARDTOWN    CLOUDY    32  27  80 CALM      30.18S
DOVER          CLOUDY    31  26  82 NW3       30.15S
GEORGETOWN     CLOUDY    32  23  69 CALM      30.16R
EASTON         PTCLDY    32  25  74 N5        30.19F
CAMBRIDGE      CLEAR     30  27  86 N3        30.16S
SALISBURY      CLOUDY    30  25  81 NW3       30.16R
OCEAN CITY     PTCLDY    31  24  75 NW8       30.15S
WALLOPS ISLAND CLOUDY    33  26  75 N5        30.15F
ACCOMACK*      CLOUDY    34  27  76 NE3       30.15R
$$

NCZ012>017-030>032-231200-
NORTH CENTRAL AND EASTERN NORTH CAROLINA

CITY           SKY/WX    TMP DP  RH WIND       PRES   REMARKS
ROANOKE RAPIDS FAIR      32  28  86 CALM      30.16S
RALEIGH        CLOUDY    34  28  79 NE3       30.16R
ELIZABETH CITY PTCLDY    39  33  79 NW13      30.13S
AHOSKIE*       MOCLDY    34  26  74 CALM      30.17R
EDENTON*       PTCLDY    37  32  84 CALM      30.15R
CURRITUCK*     PTCLDY    37  32  84 NW5       30.14S
KILL DEVIL HLS PTCLDY    46  36  66 CALM      30.10R
MANTEO         PTCLDY    46  37  70 NE7       30.12R
CAPE HATTERAS  CLOUDY    51  42  71 NE9       30.09S
TARBORO*       NOT AVBL
GOLDSBORO      CLOUDY    39  28  66 N7        30.13S
WASHINGTON     PTCLDY    36  30  81 N5        30.15S
GREENVILLE     PTCLDY    36  30  80 N3        30.16S
NEW BERN       PTCLDY    39  34  82 N8        30.14R
WILMINGTON     CLOUDY    43  34  70 NE12      30.11S
$$

VAZ048-231200-
ELSEWHERE

CITY           SKY/WX    TMP DP  RH WIND       PRES   REMARKS
HARRISBURG PA  CLOUDY    28  19  69 NW3       30.14R
BALTIMORE      PTCLDY    28  23  81 CALM      30.17R
ANNAPOLIS      NOT AVBL
ANDREWS AFB    CLEAR     25  21  85 NW3       30.16S
PHILADELPHIA   PTCLDY    33  17  51 NW7       30.16R
HENDERSON NC   CLOUDY    29  24  82 CALM      30.16S
GREENSBORO     MOCLDY    34  25  69 N5        30.13R
ROCKY MOUNT    PTCLDY    34  30  85 NE6       30.16S
$$

VAZ100-231200-
MARINE

STATION/POSITION TIME  TEMP    WIND        PRES    WAVE   SWELL
                       AIR SEA DIR/SP/G            HT/PER HT/PER
                 (UTC) (F)     (DEG/KT/KT) (MB)    (FT/S) (FT/S)
BRANDYWINE LGT   1042   37     360/ 17/ 21 1020.8R
CAPE MAY NJ      1048   36 49  340/  8/ 15 1020.3R
LEWES DE         1042   37 51  310/ 15/ 18 1020.3R
15NM E FENWICK I 1050   41 57  330/ 14/ 19 1020.3R   4/10   3/10
OCEAN-CITY-INLET 1042   36 52  340/ 10/ 12 1021.0R
WACHAPREAGUE VA  1042   35 49  360/  5/  8 1020.8F
THOMAS POINT MD  1100   35 52  310/ 11/ 12   N/A
GOOSES REEF MD   1050   39      20/ 16/ 19 1017.3R
COVE POINT MD    1042   38     350/ 16/ 21 1021.7S
SOLOMONS ISLAND  1042   36 53  340/  7/ 10 1021.2R
BISHOPS HEAD MD  1042   31 47  350/  4/  5 1021.4F
PINEY POINT MD   1042           10/ 11/ 12   N/A
POTOMAC MD       1050   38     340/ 14/ 16 1020.6S
CAMBRIDGE MD     1042   37 48              1021.9F
LEWISETTA VA     1042   38 50   10/  9/ 14 1021.6R
RAPPAHANNOCK LGT 1042           10/ 13/ 18 1021.4R
STINGRAY PT      1050   39     360/ 14/ 17 1021.3R
YORK RVR RNG VA  1042   40      10/ 18/ 21 1021.3S
YORKTOWN VA      1042   37 53  330/ 11/ 13 1021.0S
JAMESTOWN VA     1050           10/  8/  8   N/A
DOMINION TERM VA 1042   38      10/  2/  5 1021.1R
KIPTOPEKE VA     1042      53   40/  6/  9   N/A
CAPE HENRY VA    1042   42      20/ 15/ 18   N/A
WILLOUBY STN VA  1042   38     340/ 11/ 12 1020.7R
S CRANEY ISL VA  1042   40     350/ 11/ 14 1020.6R
CAPE HENRY BUOY  1100      59                N/A     4/ 9   2/11
1ST LANDING BUOY 1050   43      50/ 14/ 17 1020.6R
CAPE CHARLES BUO 1051      58                N/A     4/ 9   2/11
64NM E OF VA BCH 1050   47 61  350/ 14/ 17 1019.8R   7/10   7/10
DUCK PIER NC     1042   47 59   20/ 15/ 18 1019.3R
44100 DUCK FRF   1045      61                N/A     5/ 9   2/11
44056 DUCK FRF   1100      60                N/A     5/ 9   2/11
OREGON INLET NC  1042   49 59   10/ 10/ 12 1019.2R
HATTERAS NC      1042   51 59   20/ 13/ 18 1018.8R
DIAMOND SHLS NC  1100   56 71   10/ 16/ 21 1018.7
CAPE LOOKOUT NC  1100           20/ 12/ 14 1019.5R
$$




USA.gov is the U.S. government's official web portal to all federal, state and local government web resources and services.